Simultaneous Nadir Overpasses (SNOs) Predictions

Prediction of SNOs between GOES-14 and AQUA Satellite Orbit:

Table of predicted SNOs for the next 14.0 days since TLE Epoch: 7/29/2023
Index Date Time (GOES-14) GOES-14 Lat,Lon AQUA Lat,Lon Distance(km) Time Diff (sec)
1 07/29/2023 21:05:43 0.37,-108.54 0.28,-108.91 42.52 80
2 07/31/2023 20:54:05 0.37,-108.53 1.03,-105.42 353.35 80
3 08/01/2023 09:12:08 -0.39,-108.64 0.01,-110.45 205.46 80
4 08/03/2023 09:00:30 -0.39,-108.64 -0.76,-106.96 190.87 80
5 08/03/2023 21:18:41 0.41,-108.52 -0.34,-112.01 396.85 80
6 08/05/2023 21:07:02 0.41,-108.52 0.42,-108.52 1.15 80
7 08/07/2023 20:52:42 0.41,-108.52 1.15,-105.02 397.74 80
8 08/08/2023 09:10:45 -0.43,-108.63 -0.12,-110.04 160.25 80
9 08/10/2023 08:59:05 -0.43,-108.63 -0.88,-106.55 236.94 80
10 08/10/2023 21:17:15 0.45,-108.51 -0.23,-111.59 350.88 80
